Location: Eenumerhoogte
(53.3420°N, 6.7843°E)
Time: 21:25:19
(UTC+00:00)

Cosmos 1271 Rocket - Pass Details

Date: 15 May 2026
Orbit: 421 x 447 km, 81.2° (Epoch: 10 June)

Event Time Altitude Azimuth Distance (km) Brightness Sun altitude
Exits shadow 22:07:00 31° 128° (SE) 806 3.2 -15.5°
Maximum altitude 22:07:48 36° 96° (E) 723 3.2 -15.5°
Drops below altitude 10° 22:10:56 10° 29° (NNE) 1,555 5.7 -15.7°
Sets 22:13:04 0° 20° (NNE) 2,423 7.0 -15.8°
